Location: Puerto Pe�asco
(31.3170°N, 113.5330°W)
Time: 13:28:50
(UTC-06:00)

Hubble Space Telescope - Visible Passes

Search period start: 19 March 2019 00:00
Search period end: 29 March 2019 00:00
Orbit: 537 x 540 km, 28.5° (Epoch: 18 March)

Date Brightness Start Highest point End Pass type
(mag) Time Alt. Az. Time Alt. Az. Time Alt. Az.
21 Mar 2.9 21:06:05 10° S 21:07:21 13° S 21:07:21 13° S visible
22 Mar 2.5 20:54:53 10° SSW 20:57:38 17° SSE 20:57:54 17° SSE visible
23 Mar 2.3 20:43:55 10° SSW 20:47:04 21° SSE 20:48:24 18° SE visible
24 Mar 2.1 20:33:05 10° SW 20:36:31 25° SSE 20:38:49 16° ESE visible
24 Mar 3.4 22:13:23 10° WSW 22:14:11 15° WSW 22:14:11 15° WSW visible
25 Mar 1.9 20:22:20 10° SW 20:25:58 30° SSE 20:29:10 12° ESE visible
25 Mar 2.8 22:02:52 10° WSW 22:04:32 23° WSW 22:04:32 23° WSW visible
26 Mar 1.7 20:11:39 10° SW 20:15:26 35° SSE 20:19:15 10° E visible
26 Mar 2.2 21:52:21 10° WSW 21:54:48 33° WSW 21:54:48 33° WSW visible
27 Mar 1.5 21:41:52 10° W 21:45:02 46° SW 21:45:02 46° SW visible
28 Mar 1.0 21:31:22 10° W 21:35:13 56° SSW 21:35:13 56° SSW visible
